Content
SEND FEEDBACK

Daily
Averages
Monthly
Summary
United States of America

CHICAGO, ILLINOIS


Home > North America > United States > Illinois
Elevation: 674 feet     Latitude: 41 59N     Longitude: 087 54W

WEATHER
 
SELECT A DAY
Number of Records: 194,730;   Date Range: 7/8/95 - 7/7/14
 
SHARE

PRINT THIS DATA

[ ← Previous Day ]
WEATHER ALMANAC - JUNE 14, 2013
[ Next Day → ]
[ °C ]   °F
Weather ElementAverageHighLow
Temperature63.6 °F73.9 °F (1:52 pm)57 °F (4:52 am)
Dewpoint50.7 °F55 °F (12:52 pm)48 °F (5:52 am)
Humidity63.7 %75 % (1:52 am)46 % (2:52 pm)
Barometer30.09 in30.15 in (9:52 am)30.05 in (6:52 pm)
Wind Speed5.8 mph10.4 mph (3:52 am)
Weather ElementAverage
Visibility10 mi
Wind DirectionENE (52.6 °)

Weather ElementTotal
Precipitation---
Cooling Degree Days0.5 (Base 65)
Growing Degree Days15.5 (Base 50)
Averaged from 23 records on June 14, 2013
WEATHER CONDITIONS BREAKOUT
WIND DIRECTION BREAKOUT
WEATHER BY HOUR - JUNE 14, 2013
[ °C ]   °F
Local TimeTemperatureDewpointHumidityBarometerVisibilityWind DirectionWind SpeedGust SpeedPrecipitationEventsConditions
1:52 AM57.9 °F50.0 °F75 %30.07 in10.0 miNNE (20°)8.1 mphClear
2:52 AM57.9 °F50.0 °F75 %30.06 in10.0 miNorth (10°)6.9 mphClear
3:52 AM57.9 °F48.9 °F72 %30.06 in10.0 miNNE (20°)10.4 mphClear
4:52 AM57.0 °F48.9 °F74 %30.08 in10.0 miNNE (20°)6.9 mphClear
5:52 AM57.0 °F48.0 °F72 %30.08 in10.0 miNNE (20°)5.8 mphClear
6:52 AM60.1 °F48.9 °F67 %30.12 in10.0 miNorth (350°)4.6 mphClear
7:52 AM61.0 °F50.0 °F67 %30.12 in10.0 miNE (50°)8.1 mphClear
8:52 AM62.1 °F52.0 °F70 %30.14 in10.0 miNE (50°)8.1 mphClear
9:52 AM64.9 °F52.0 °F63 %30.15 in10.0 miNE (50°)4.6 mphClear
10:52 AM66.9 °F53.1 °F61 %30.13 in10.0 miENE (70°)6.9 mphClear
11:52 AM66.9 °F54.0 °F63 %30.14 in10.0 miEast (80°)5.8 mphClear
12:52 PM70.0 °F55.0 °F59 %30.13 in10.0 miENE (60°)5.8 mphClear
1:52 PM73.9 °F53.1 °F48 %30.12 in10.0 miNE (40°)8.1 mphClear
2:52 PM73.9 °F52.0 °F46 %30.10 in10.0 miENE (60°)5.8 mphClear
3:52 PM73.9 °F52.0 °F46 %30.09 in10.0 miNE (40°)6.9 mphClear
4:52 PM72.0 °F52.0 °F49 %30.07 in10.0 miNE (50°)10.4 mphClear
5:52 PM68.0 °F51.1 °F55 %30.07 in10.0 miENE (70°)10.4 mphClear
6:52 PM64.9 °F50.0 °F58 %30.05 in10.0 miENE (70°)5.8 mphClear
7:52 PM62.1 °F50.0 °F65 %30.06 in10.0 miCalmClear
8:52 PM60.1 °F48.9 °F67 %30.07 in10.0 miEast (80°)3.5 mphClear
9:52 PM60.1 °F48.9 °F67 %30.07 in10.0 miCalmClear
10:52 PM57.0 °F48.9 °F74 %30.07 in10.0 miCalmClear
11:52 PM57.9 °F48.9 °F72 %30.06 in10.0 miCalmClear
Hourly data recorded from KPWK, located miles away from Chicago, Illinois







STORIES FROM OUR PARTNERS